Time,TemperatureF,DewpointF,PressureIn,WindDirection,WindDirectionDegrees,WindSpeedMPH,WindSpeedGustMPH,Humidity,HourlyPrecipIn,Conditions,Clouds,dailyrainin,SoftwareType,DateUTC
2013-05-18 00:00:00,58.3,52.2,29.69,South,180,1.0,3.0,80,0.00,,,-99.99,meteohub,2013-05-17 22:00:00,
2013-05-18 00:16:00,58.1,52.0,29.69,SSE,158,2.0,6.0,80,0.00,,,0.00,meteohub,2013-05-17 22:16:00,
2013-05-18 00:31:00,58.1,52.3,29.70,South,180,4.0,7.0,81,0.00,,,0.00,meteohub,2013-05-17 22:31:00,
2013-05-18 00:47:00,58.3,52.5,29.70,South,180,5.0,18.0,81,0.00,,,0.00,meteohub,2013-05-17 22:47:00,
2013-05-18 01:02:00,58.8,52.7,29.70,SSW,203,5.0,9.0,80,0.00,,,0.00,meteohub,2013-05-17 23:02:00,
2013-05-18 01:17:00,59.2,52.9,29.69,SSW,203,5.0,9.0,79,0.00,,,0.00,meteohub,2013-05-17 23:17:00,
2013-05-18 01:33:00,59.7,52.9,29.69,South,180,5.0,11.0,78,0.00,,,0.00,meteohub,2013-05-17 23:33:00,
2013-05-18 01:48:00,59.5,52.9,29.69,South,180,4.0,9.0,78,0.00,,,0.00,meteohub,2013-05-17 23:48:00,
2013-05-18 02:04:00,59.7,53.2,29.69,South,180,8.0,13.0,79,0.00,,,0.00,meteohub,2013-05-18 00:04:00,
2013-05-18 02:19:00,59.9,53.8,29.68,South,180,6.0,15.0,80,0.00,,,0.00,meteohub,2013-05-18 00:19:00,
2013-05-18 02:34:00,59.9,54.1,29.68,South,180,9.0,16.0,81,0.00,,,0.00,meteohub,2013-05-18 00:34:00,
2013-05-18 02:50:00,60.3,54.3,29.67,South,180,7.0,15.0,81,0.00,,,0.00,meteohub,2013-05-18 00:50:00,
2013-05-18 03:05:00,60.4,54.5,29.67,SSW,203,10.0,18.0,80,0.00,,,0.00,meteohub,2013-05-18 01:05:00,
2013-05-18 03:20:00,61.0,55.0,29.67,South,180,13.0,24.0,81,0.00,,,0.00,meteohub,2013-05-18 01:20:00,
2013-05-18 03:36:00,61.0,54.5,29.66,SSW,203,10.0,22.0,79,0.00,,,0.00,meteohub,2013-05-18 01:36:00,
2013-05-18 03:51:00,60.6,55.2,29.67,SW,225,10.0,23.0,82,0.00,,,0.00,meteohub,2013-05-18 01:51:00,
2013-05-18 04:06:00,59.9,55.9,29.66,SSW,203,9.0,15.0,86,0.00,,,0.00,meteohub,2013-05-18 02:06:00,
2013-05-18 04:21:00,59.7,55.2,29.67,SW,225,12.0,23.0,84,0.00,,,0.00,meteohub,2013-05-18 02:21:00,
2013-05-18 04:37:00,60.1,54.9,29.67,SSW,203,10.0,22.0,83,0.00,,,0.00,meteohub,2013-05-18 02:37:00,
2013-05-18 04:52:00,60.1,55.2,29.67,SW,225,9.0,22.0,84,0.00,,,0.00,meteohub,2013-05-18 02:52:00,
2013-05-18 05:07:00,60.1,55.2,29.67,WSW,248,8.0,14.0,84,0.00,,,0.00,meteohub,2013-05-18 03:07:00,
2013-05-18 05:22:00,59.9,55.8,29.66,SW,225,10.0,18.0,86,0.00,,,0.00,meteohub,2013-05-18 03:22:00,
2013-05-18 05:38:00,59.4,56.3,29.66,SW,225,10.0,18.0,89,0.02,,,0.02,meteohub,2013-05-18 03:38:00,
2013-05-18 05:53:00,58.5,56.1,29.66,SSW,203,10.0,20.0,92,0.02,,,0.02,meteohub,2013-05-18 03:53:00,
2013-05-18 06:08:00,58.5,56.1,29.66,SSW,203,10.0,-999.0,92,0.02,,,0.02,meteohub,2013-05-18 04:08:00,
2013-05-18 06:23:00,58.8,56.5,29.66,SSW,203,10.0,18.0,92,0.02,,,0.03,meteohub,2013-05-18 04:23:00,
2013-05-18 06:38:00,58.6,56.7,29.66,SSW,203,6.0,13.0,93,0.02,,,0.03,meteohub,2013-05-18 04:38:00,
2013-05-18 06:53:00,58.5,56.5,29.67,SW,225,7.0,17.0,93,0.02,,,0.03,meteohub,2013-05-18 04:53:00,
2013-05-18 07:08:00,58.5,56.5,29.68,SW,225,5.0,11.0,93,0.01,,,0.03,meteohub,2013-05-18 05:08:00,
2013-05-18 07:24:00,57.9,55.6,29.68,SW,225,4.0,11.0,91,0.00,,,0.03,meteohub,2013-05-18 05:24:00,
2013-05-18 07:39:00,57.9,54.7,29.69,SW,225,4.0,10.0,89,0.00,,,0.03,meteohub,2013-05-18 05:39:00,
2013-05-18 07:55:00,57.9,54.5,29.69,WSW,248,4.0,8.0,88,0.00,,,0.03,meteohub,2013-05-18 05:55:00,
2013-05-18 08:10:00,57.9,54.3,29.70,SW,225,3.0,6.0,87,0.00,,,0.03,meteohub,2013-05-18 06:10:00,
2013-05-18 08:25:00,58.1,54.1,29.70,WSW,248,4.0,7.0,86,0.00,,,0.03,meteohub,2013-05-18 06:25:00,
2013-05-18 08:41:00,58.5,53.6,29.71,WSW,248,6.0,10.0,84,0.00,,,0.03,meteohub,2013-05-18 06:41:00,
2013-05-18 08:56:00,58.5,53.2,29.71,WSW,248,7.0,13.0,83,0.00,,,0.03,meteohub,2013-05-18 06:56:00,
2013-05-18 09:11:00,58.5,52.3,29.72,WSW,248,8.0,15.0,79,0.00,,,0.03,meteohub,2013-05-18 07:11:00,
2013-05-18 09:27:00,58.5,51.8,29.73,West,270,10.0,14.0,78,0.00,,,0.03,meteohub,2013-05-18 07:27:00,
2013-05-18 09:42:00,57.9,50.7,29.73,West,270,7.0,17.0,77,0.00,,,0.03,meteohub,2013-05-18 07:42:00,
2013-05-18 09:57:00,57.9,50.7,29.73,WSW,248,6.0,10.0,77,0.00,,,0.03,meteohub,2013-05-18 07:57:00,
2013-05-18 10:13:00,58.5,49.1,29.75,WSW,248,10.0,17.0,70,0.00,,,0.03,meteohub,2013-05-18 08:13:00,
2013-05-18 10:28:00,58.5,48.7,29.74,West,270,11.0,16.0,69,0.00,,,0.03,meteohub,2013-05-18 08:28:00,
2013-05-18 10:44:00,58.6,47.5,29.75,WSW,248,10.0,17.0,66,0.00,,,0.03,meteohub,2013-05-18 08:44:00,
2013-05-18 10:59:00,58.6,47.8,29.76,WSW,248,10.0,20.0,67,0.00,,,0.03,meteohub,2013-05-18 08:59:00,
2013-05-18 11:14:00,58.6,48.4,29.76,WSW,248,7.0,16.0,68,0.01,,,0.04,meteohub,2013-05-18 09:14:00,
2013-05-18 11:29:00,60.1,47.5,29.76,WSW,248,9.0,17.0,63,0.01,,,0.04,meteohub,2013-05-18 09:29:00,
2013-05-18 11:45:00,61.0,47.7,29.77,WSW,248,10.0,21.0,61,0.01,,,0.04,meteohub,2013-05-18 09:45:00,
2013-05-18 12:00:00,60.4,45.3,29.77,WSW,248,11.0,20.0,57,0.00,,,0.04,meteohub,2013-05-18 10:00:00,
2013-05-18 12:16:00,60.8,43.3,29.78,WSW,248,11.0,18.0,52,0.00,,,0.04,meteohub,2013-05-18 10:16:00,
2013-05-18 12:31:00,61.2,42.8,29.78,WSW,248,12.0,20.0,50,0.00,,,0.04,meteohub,2013-05-18 10:31:00,
2013-05-18 12:46:00,61.7,43.2,29.78,WSW,248,10.0,17.0,50,0.00,,,0.04,meteohub,2013-05-18 10:46:00,
2013-05-18 13:01:00,61.5,44.1,29.78,WSW,248,10.0,25.0,52,0.00,,,0.04,meteohub,2013-05-18 11:01:00,
2013-05-18 13:17:00,62.1,43.5,29.79,SW,225,11.0,21.0,50,0.00,,,0.04,meteohub,2013-05-18 11:17:00,
2013-05-18 13:32:00,61.9,43.9,29.79,WSW,248,11.0,24.0,51,0.00,,,0.04,meteohub,2013-05-18 11:32:00,
2013-05-18 13:48:00,62.1,43.9,29.79,SW,225,11.0,21.0,51,0.00,,,0.04,meteohub,2013-05-18 11:48:00,
2013-05-18 14:03:00,61.7,44.1,29.80,SW,225,12.0,24.0,52,0.00,,,0.04,meteohub,2013-05-18 12:03:00,
2013-05-18 14:18:00,61.9,43.5,29.80,WSW,248,11.0,22.0,51,0.00,,,0.04,meteohub,2013-05-18 12:18:00,
2013-05-18 14:33:00,62.1,41.7,29.80,WSW,248,12.0,22.0,47,0.00,,,0.04,meteohub,2013-05-18 12:33:00,
2013-05-18 14:48:00,62.2,41.5,29.80,WSW,248,13.0,21.0,46,0.00,,,0.04,meteohub,2013-05-18 12:48:00,
2013-05-18 15:04:00,62.2,41.7,29.80,SW,225,13.0,24.0,47,0.00,,,0.04,meteohub,2013-05-18 13:04:00,
2013-05-18 15:19:00,62.8,43.0,29.81,SW,225,12.0,26.0,48,0.00,,,0.04,meteohub,2013-05-18 13:19:00,
2013-05-18 15:34:00,62.4,41.2,29.81,SW,225,12.0,24.0,45,0.00,,,0.04,meteohub,2013-05-18 13:34:00,
2013-05-18 15:49:00,63.1,39.2,29.81,WSW,248,11.0,21.0,41,0.00,,,0.04,meteohub,2013-05-18 13:49:00,
2013-05-18 16:04:00,63.7,38.1,29.81,WSW,248,13.0,25.0,38,0.00,,,0.04,meteohub,2013-05-18 14:04:00,
2013-05-18 16:20:00,62.8,41.0,29.81,WSW,248,13.0,24.0,44,0.00,,,0.04,meteohub,2013-05-18 14:20:00,
2013-05-18 16:35:00,62.4,42.3,29.81,SSW,203,10.0,25.0,47,0.00,,,0.04,meteohub,2013-05-18 14:35:00,
2013-05-18 16:50:00,62.2,43.3,29.82,WSW,248,13.0,22.0,50,0.00,,,0.04,meteohub,2013-05-18 14:50:00,
2013-05-18 17:06:00,62.6,43.9,29.82,SW,225,12.0,17.0,50,0.00,,,0.04,meteohub,2013-05-18 15:06:00,
2013-05-18 17:22:00,62.2,45.0,29.82,SW,225,10.0,20.0,53,0.00,,,0.04,meteohub,2013-05-18 15:22:00,
2013-05-18 17:37:00,61.9,45.1,29.82,SW,225,4.0,17.0,54,0.00,,,0.04,meteohub,2013-05-18 15:37:00,
2013-05-18 17:52:00,61.9,45.3,29.83,South,180,8.0,20.0,54,0.00,,,0.04,meteohub,2013-05-18 15:52:00,
2013-05-18 18:08:00,61.3,45.5,29.83,SSW,203,6.0,16.0,56,0.00,,,0.04,meteohub,2013-05-18 16:08:00,
2013-05-18 18:23:00,60.8,44.4,29.83,SSW,203,11.0,19.0,54,0.00,,,0.04,meteohub,2013-05-18 16:23:00,
2013-05-18 18:38:00,61.0,45.1,29.84,SW,225,10.0,17.0,55,0.00,,,0.04,meteohub,2013-05-18 16:38:00,
2013-05-18 18:54:00,61.2,44.6,29.84,SW,225,8.0,16.0,54,0.00,,,0.04,meteohub,2013-05-18 16:54:00,
2013-05-18 19:09:00,61.3,44.6,29.85,WSW,248,12.0,19.0,54,0.00,,,0.04,meteohub,2013-05-18 17:09:00,
2013-05-18 19:25:00,61.2,45.3,29.85,South,180,6.0,17.0,56,0.00,,,0.04,meteohub,2013-05-18 17:25:00,
2013-05-18 19:40:00,60.8,45.1,29.86,SW,225,10.0,21.0,56,0.00,,,0.04,meteohub,2013-05-18 17:40:00,
2013-05-18 19:55:00,61.0,44.1,29.86,WSW,248,14.0,22.0,53,0.00,,,0.04,meteohub,2013-05-18 17:55:00,
2013-05-18 20:11:00,60.4,45.0,29.87,SW,225,17.0,20.0,56,0.00,,,0.04,meteohub,2013-05-18 18:11:00,
2013-05-18 20:26:00,60.3,46.0,29.87,SW,225,13.0,22.0,59,0.00,,,0.04,meteohub,2013-05-18 18:26:00,
2013-05-18 20:41:00,59.5,45.1,29.88,WSW,248,8.0,22.0,58,0.00,,,0.04,meteohub,2013-05-18 18:41:00,
2013-05-18 20:57:00,59.4,46.0,29.88,West,270,12.0,21.0,61,0.00,,,0.04,meteohub,2013-05-18 18:57:00,
2013-05-18 21:12:00,59.2,49.3,29.89,WSW,248,12.0,19.0,69,0.00,,,0.04,meteohub,2013-05-18 19:12:00,
2013-05-18 21:27:00,58.8,49.8,29.89,WSW,248,11.0,17.0,72,0.00,,,0.04,meteohub,2013-05-18 19:27:00,
2013-05-18 21:43:00,58.6,50.4,29.89,SW,225,9.0,18.0,74,0.00,,,0.04,meteohub,2013-05-18 19:43:00,
2013-05-18 21:58:00,58.8,50.2,29.89,WSW,248,11.0,15.0,73,0.00,,,0.04,meteohub,2013-05-18 19:58:00,
2013-05-18 22:13:00,58.8,50.4,29.89,SW,225,11.0,17.0,73,0.00,,,0.04,meteohub,2013-05-18 20:13:00,
2013-05-18 22:28:00,58.8,49.5,29.90,SW,225,13.0,17.0,71,0.00,,,0.04,meteohub,2013-05-18 20:28:00,
2013-05-18 22:44:00,59.0,48.4,29.90,WSW,248,12.0,19.0,67,0.00,,,0.04,meteohub,2013-05-18 20:44:00,
2013-05-18 22:59:00,59.2,47.7,29.91,WSW,248,11.0,17.0,65,0.00,,,0.04,meteohub,2013-05-18 20:59:00,
2013-05-18 23:14:00,58.8,48.7,29.91,WSW,248,10.0,21.0,69,0.00,,,0.04,meteohub,2013-05-18 21:14:00,
2013-05-18 23:29:00,58.6,48.9,29.91,WSW,248,7.0,15.0,70,0.00,,,0.04,meteohub,2013-05-18 21:29:00,
2013-05-18 23:45:00,59.0,46.8,29.91,WSW,248,11.0,18.0,64,0.00,,,0.04,meteohub,2013-05-18 21:45:00,